ETD212 OMAA-VIDP

Flight info

Callsign ETD212
Flight time N/A
Altitude 39000
Route KANIP N318 LAKLU G216 KC Z306 RK G452 LKA LKA7G
Aircraft A35K/H-SDE2E3GHIJ3J4J5LM1ORWXY/LB1D1

Departure

Time 2026-05-08 08:25
Airport Zayed International Airport (OMAA)

Arrival

Time N/A
Airport Indira Gandhi International Airport (VIDP)
Time Latitude Longitude Altitude Speed Heading
2026-05-08 07:48 24.45492 54.64247 78 ft 0 kts 255°
2026-05-08 08:00 24.45496 54.64261 67 ft 3 kts 255°
2026-05-08 08:00 24.45500 54.64281 85 ft 3 kts 255°
2026-05-08 08:01 24.45505 54.64300 79 ft 3 kts 255°
2026-05-08 08:01 24.45510 54.64320 79 ft 3 kts 252°
2026-05-08 08:01 24.45517 54.64340 79 ft 3 kts 234°
2026-05-08 08:01 24.45530 54.64356 85 ft 3 kts 218°
2026-05-08 08:02 24.45546 54.64367 80 ft 3 kts 201°
2026-05-08 08:02 24.45551 54.64369 80 ft 0 kts 199°
2026-05-08 08:10 24.45546 54.64367 80 ft 4 kts 199°
2026-05-08 08:10 24.45496 54.64375 80 ft 9 kts 144°
2026-05-08 08:10 24.45496 54.64423 80 ft 7 kts 53°
2026-05-08 08:11 24.45563 54.64488 83 ft 18 kts 38°
2026-05-08 08:11 24.45627 54.64554 80 ft 6 kts 69°
2026-05-08 08:11 24.45614 54.64613 85 ft 12 kts 117°
2026-05-08 08:11 24.45553 54.64708 84 ft 19 kts 126°
2026-05-08 08:12 24.45458 54.64843 84 ft 26 kts 128°
2026-05-08 08:12 24.45342 54.65004 83 ft 27 kts 128°
2026-05-08 08:12 24.45225 54.65169 85 ft 27 kts 128°
2026-05-08 08:12 24.45107 54.65335 82 ft 28 kts 128°
2026-05-08 08:13 24.45007 54.65475 87 ft 15 kts 128°
2026-05-08 08:13 24.44933 54.65546 83 ft 12 kts 171°
2026-05-08 08:13 24.44868 54.65513 88 ft 11 kts 213°
2026-05-08 08:13 24.44806 54.65462 87 ft 12 kts 218°
2026-05-08 08:14 24.44734 54.65401 87 ft 14 kts 218°
2026-05-08 08:14 24.44651 54.65330 88 ft 16 kts 218°
2026-05-08 08:14 24.44557 54.65250 83 ft 18 kts 218°
2026-05-08 08:14 24.44454 54.65162 87 ft 20 kts 218°
2026-05-08 08:15 24.44341 54.65066 85 ft 21 kts 218°
2026-05-08 08:15 24.44220 54.64965 88 ft 22 kts 218°
2026-05-08 08:15 24.44093 54.64858 83 ft 24 kts 217°
2026-05-08 08:15 24.43973 54.64757 83 ft 13 kts 217°
2026-05-08 08:16 24.43903 54.64698 86 ft 12 kts 217°
2026-05-08 08:16 24.43851 54.64680 82 ft 6 kts 159°
2026-05-08 08:16 24.43818 54.64709 86 ft 7 kts 134°
2026-05-08 08:16 24.43780 54.64757 82 ft 11 kts 130°
2026-05-08 08:17 24.43724 54.64834 86 ft 16 kts 128°
2026-05-08 08:17 24.43645 54.64946 84 ft 20 kts 127°
2026-05-08 08:17 24.43558 54.65069 85 ft 21 kts 128°
2026-05-08 08:17 24.43465 54.65199 85 ft 22 kts 128°
2026-05-08 08:18 24.43367 54.65337 85 ft 23 kts 128°
2026-05-08 08:18 24.43265 54.65481 86 ft 25 kts 128°
2026-05-08 08:18 24.43157 54.65633 85 ft 26 kts 128°
2026-05-08 08:18 24.43044 54.65793 81 ft 27 kts 128°
2026-05-08 08:19 24.42930 54.65955 86 ft 27 kts 128°
2026-05-08 08:19 24.42810 54.66122 82 ft 24 kts 128°
2026-05-08 08:19 24.42796 54.66142 82 ft 1 kts 128°
2026-05-08 08:19 24.42785 54.66157 82 ft 4 kts 128°
2026-05-08 08:20 24.42766 54.66184 85 ft 5 kts 128°
2026-05-08 08:20 24.42738 54.66221 82 ft 6 kts 135°
2026-05-08 08:20 24.42714 54.66259 82 ft 7 kts 128°
2026-05-08 08:20 24.42707 54.66293 82 ft 3 kts 80°
2026-05-08 08:21 24.42718 54.66319 82 ft 5 kts 63°
2026-05-08 08:21 24.42751 54.66333 86 ft 5 kts 359°
2026-05-08 08:21 24.42772 54.66320 87 ft 5 kts 324°
2026-05-08 08:21 24.42812 54.66275 82 ft 11 kts 309°
2026-05-08 08:22 24.42872 54.66192 82 ft 17 kts 307°
2026-05-08 08:22 24.42948 54.66085 82 ft 18 kts 308°
2026-05-08 08:22 24.43029 54.65973 82 ft 17 kts 308°
2026-05-08 08:22 24.43035 54.65926 82 ft 5 kts 241°
2026-05-08 08:23 24.43005 54.65899 86 ft 5 kts 195°
2026-05-08 08:23 24.42971 54.65911 87 ft 6 kts 146°
2026-05-08 08:23 24.42929 54.65956 82 ft 11 kts 135°
2026-05-08 08:23 24.42869 54.66038 82 ft 18 kts 127°
2026-05-08 08:24 24.42784 54.66163 87 ft 21 kts 127°
2026-05-08 08:24 24.42695 54.66183 83 ft 11 kts 209°
2026-05-08 08:24 24.42633 54.66131 88 ft 10 kts 235°
2026-05-08 08:24 24.42636 54.66068 85 ft 11 kts 297°
2026-05-08 08:25 24.42814 54.65810 86 ft 77 kts 308°
2026-05-08 08:25 24.43282 54.65152 88 ft 139 kts 308°
2026-05-08 08:25 24.43985 54.64167 246 ft 177 kts 308°
2026-05-08 08:25 24.44754 54.63143 1045 ft 172 kts 308°
2026-05-08 08:26 24.45519 54.62114 1532 ft 181 kts 307°
2026-05-08 08:26 24.46311 54.60995 1788 ft 195 kts 306°
2026-05-08 08:26 24.47165 54.59757 2102 ft 213 kts 306°
2026-05-08 08:26 24.48091 54.58421 2364 ft 228 kts 306°
2026-05-08 08:27 24.49085 54.56991 2702 ft 241 kts 307°
2026-05-08 08:27 24.50118 54.55526 3309 ft 245 kts 307°
2026-05-08 08:27 24.51165 54.54045 3987 ft 245 kts 307°
2026-05-08 08:27 24.52206 54.52568 4783 ft 245 kts 307°
2026-05-08 08:28 24.53251 54.51092 5459 ft 245 kts 307°
2026-05-08 08:28 24.54304 54.49602 6009 ft 248 kts 308°
2026-05-08 08:28 24.55365 54.48099 6587 ft 250 kts 308°
2026-05-08 08:28 24.56431 54.46591 7157 ft 251 kts 308°
2026-05-08 08:29 24.57499 54.45081 7707 ft 256 kts 308°
2026-05-08 08:29 24.58613 54.43543 8194 ft 259 kts 311°
2026-05-08 08:29 24.60029 54.42321 8686 ft 263 kts 334°
2026-05-08 08:29 24.61823 54.41931 8950 ft 266 kts
2026-05-08 08:30 24.63588 54.42537 9000 ft 269 kts 26°
2026-05-08 08:30 24.65209 54.43597 8996 ft 272 kts 30°
2026-05-08 08:30 24.68398 54.45802 9004 ft 272 kts 30°
2026-05-08 08:31 24.70011 54.46892 8993 ft 272 kts 29°
2026-05-08 08:31 24.71632 54.47978 8992 ft 273 kts 29°
2026-05-08 08:31 24.73166 54.49219 8991 ft 276 kts 44°
2026-05-08 08:31 24.74216 54.50992 9022 ft 277 kts 62°
2026-05-08 08:32 24.75000 54.52934 8995 ft 278 kts 65°
2026-05-08 08:32 24.75765 54.54904 8989 ft 279 kts 65°
2026-05-08 08:32 24.76534 54.56867 8993 ft 279 kts 64°
2026-05-08 08:32 24.77312 54.58821 9049 ft 278 kts 64°
2026-05-08 08:33 24.78091 54.60768 9211 ft 287 kts 64°
2026-05-08 08:33 24.78900 54.62842 9506 ft 300 kts 68°
2026-05-08 08:33 24.79385 54.65090 10034 ft 304 kts 85°
2026-05-08 08:33 24.79166 54.67420 10485 ft 313 kts 108°
2026-05-08 08:34 24.78032 54.69485 10732 ft 325 kts 135°
2026-05-08 08:34 24.76089 54.70816 10928 ft 338 kts 162°
2026-05-08 08:34 24.73780 54.71535 11252 ft 351 kts 166°
2026-05-08 08:34 24.71404 54.72270 11826 ft 356 kts 164°
2026-05-08 08:35 24.69028 54.73076 12606 ft 355 kts 162°
2026-05-08 08:35 24.66721 54.73946 13319 ft 356 kts 160°
2026-05-08 08:35 24.64383 54.74923 13907 ft 361 kts 157°
2026-05-08 08:35 24.62060 54.76012 14495 ft 365 kts 155°
2026-05-08 08:36 24.59755 54.77209 15080 ft 369 kts 153°
2026-05-08 08:36 24.57471 54.78527 15681 ft 371 kts 150°
2026-05-08 08:36 24.55237 54.79991 16301 ft 373 kts 146°
2026-05-08 08:36 24.53219 54.81793 16905 ft 376 kts 136°
2026-05-08 08:37 24.51377 54.83811 17449 ft 380 kts 134°
2026-05-08 08:37 24.49546 54.85919 17994 ft 384 kts 133°
2026-05-08 08:37 24.47711 54.88064 18550 ft 387 kts 133°
2026-05-08 08:37 24.45865 54.90235 19058 ft 391 kts 133°
2026-05-08 08:38 24.43998 54.92436 19579 ft 396 kts 133°
2026-05-08 08:38 24.42111 54.94663 20093 ft 400 kts 133°
2026-05-08 08:38 24.40208 54.96908 20616 ft 404 kts 133°
2026-05-08 08:38 24.38283 54.99179 21102 ft 408 kts 133°
2026-05-08 08:39 24.36339 55.01472 21567 ft 413 kts 134°
2026-05-08 08:39 24.34375 55.03788 22028 ft 417 kts 134°
2026-05-08 08:39 24.32473 55.06222 22459 ft 422 kts 127°
2026-05-08 08:39 24.30878 55.08945 22918 ft 426 kts 121°
2026-05-08 08:40 24.29411 55.11791 23340 ft 430 kts 120°
2026-05-08 08:40 24.27948 55.14667 23751 ft 434 kts 120°
2026-05-08 08:40 24.26476 55.17554 24156 ft 438 kts 120°
2026-05-08 08:40 24.25000 55.20438 24576 ft 441 kts 120°
2026-05-08 08:41 24.23491 55.23381 25051 ft 444 kts 121°
2026-05-08 08:41 24.21966 55.26351 25528 ft 447 kts 121°
2026-05-08 08:41 24.20438 55.29322 26008 ft 450 kts 121°
2026-05-08 08:41 24.18888 55.32334 26488 ft 454 kts 121°
2026-05-08 08:42 24.17437 55.35382 26949 ft 457 kts 116°
2026-05-08 08:42 24.16112 55.38593 27419 ft 461 kts 115°
2026-05-08 08:42 24.14857 55.41831 27865 ft 465 kts 114°
2026-05-08 08:42 24.13629 55.45086 28308 ft 468 kts 114°
2026-05-08 08:43 24.12384 55.48397 28741 ft 471 kts 114°
2026-05-08 08:43 24.11124 55.51728 29161 ft 475 kts 114°
2026-05-08 08:43 24.09848 55.55079 29566 ft 478 kts 114°
2026-05-08 08:43 24.08557 55.58447 30006 ft 481 kts 114°
2026-05-08 08:44 24.07253 55.61833 30391 ft 484 kts 114°
2026-05-08 08:44 24.05937 55.65237 30776 ft 486 kts 114°
2026-05-08 08:44 24.04523 55.68611 31170 ft 488 kts 118°
2026-05-08 08:44 24.02953 55.71916 31546 ft 490 kts 120°
2026-05-08 08:45 24.01338 55.75156 31891 ft 492 kts 121°
2026-05-08 08:45 23.99684 55.78451 32240 ft 495 kts 120°
2026-05-08 08:45 23.98032 55.81782 32580 ft 497 kts 120°
2026-05-08 08:45 23.96396 55.85129 32914 ft 500 kts 120°
2026-05-08 08:46 23.94775 55.88489 33211 ft 502 kts 120°
2026-05-08 08:46 23.93149 55.91882 33493 ft 504 kts 119°
2026-05-08 08:46 23.91521 55.95292 33790 ft 506 kts 119°
2026-05-08 08:46 23.89893 55.98701 34222 ft 505 kts 119°
2026-05-08 08:47 23.88270 56.02100 34604 ft 504 kts 119°
2026-05-08 08:47 23.86669 56.05450 34956 ft 503 kts 120°
2026-05-08 08:47 23.85046 56.08840 35329 ft 502 kts 120°
2026-05-08 08:47 23.83424 56.12223 35684 ft 502 kts 120°
2026-05-08 08:48 23.81801 56.15600 36030 ft 501 kts 120°
2026-05-08 08:48 23.80175 56.18983 36368 ft 500 kts 120°
2026-05-08 08:48 23.78561 56.22337 36684 ft 500 kts 120°
2026-05-08 08:48 23.76943 56.25701 36982 ft 499 kts 120°
2026-05-08 08:49 23.75346 56.29019 37361 ft 496 kts 120°
2026-05-08 08:49 23.73743 56.32348 37752 ft 493 kts 120°
2026-05-08 08:49 23.72148 56.35658 38080 ft 491 kts 120°
2026-05-08 08:49 23.70556 56.38959 38356 ft 491 kts 120°
2026-05-08 08:50 23.68965 56.42254 38609 ft 490 kts 120°
2026-05-08 08:50 23.67369 56.45554 38847 ft 489 kts 120°
2026-05-08 08:50 23.65785 56.48831 39066 ft 489 kts 120°
2026-05-08 08:50 23.64195 56.52116 39267 ft 489 kts 120°
2026-05-08 08:51 23.62603 56.55402 39484 ft 490 kts 120°
2026-05-08 08:51 23.61011 56.58689 39671 ft 490 kts 120°
2026-05-08 08:51 23.59434 56.61941 39852 ft 490 kts 120°
2026-05-08 08:51 23.57840 56.65229 39995 ft 490 kts 120°
2026-05-08 08:52 23.56238 56.68529 40161 ft 490 kts 120°
2026-05-08 08:52 23.54662 56.71773 40350 ft 490 kts 120°
2026-05-08 08:52 23.53066 56.75059 40518 ft 490 kts 120°
2026-05-08 08:52 23.51467 56.78347 40638 ft 491 kts 120°
2026-05-08 08:53 23.49865 56.81638 40762 ft 492 kts 120°
2026-05-08 08:53 23.48256 56.84941 40780 ft 494 kts 120°
2026-05-08 08:53 23.45021 56.91574 40776 ft 494 kts 120°
2026-05-08 08:54 23.41816 56.98144 40776 ft 494 kts 120°
2026-05-08 08:54 23.39260 57.05106 40777 ft 499 kts 105°
2026-05-08 08:55 23.38801 57.12655 40778 ft 503 kts 84°
2026-05-08 08:55 23.39991 57.20142 40778 ft 505 kts 79°
2026-05-08 08:56 23.41415 57.27608 40777 ft 506 kts 79°
2026-05-08 08:56 23.42835 57.35118 40776 ft 506 kts 79°
2026-05-08 08:57 23.44216 57.42640 40776 ft 506 kts 80°
2026-05-08 08:57 23.45579 57.50168 40777 ft 506 kts 80°
2026-05-08 08:58 23.46928 57.57651 40778 ft 506 kts 80°
2026-05-08 08:58 23.48287 57.65199 40775 ft 506 kts 80°
2026-05-08 08:59 23.49639 57.72739 40777 ft 507 kts 80°
2026-05-08 08:59 23.50983 57.80231 40776 ft 507 kts 80°
2026-05-08 09:00 23.52340 57.87800 40777 ft 507 kts 80°
2026-05-08 09:00 23.53687 57.95339 40777 ft 507 kts 80°
2026-05-08 09:01 23.55020 58.02833 40777 ft 507 kts 80°
2026-05-08 09:01 23.56358 58.10384 40776 ft 507 kts 80°
2026-05-08 09:02 23.57694 58.17939 40776 ft 507 kts 80°
2026-05-08 09:02 23.59025 58.25492 40777 ft 507 kts 80°
2026-05-08 09:03 23.60334 58.33071 40766 ft 508 kts 81°
2026-05-08 09:03 23.61595 58.40661 40748 ft 508 kts 81°
2026-05-08 09:04 23.62846 58.48204 40751 ft 508 kts 81°
2026-05-08 09:04 23.64109 58.55803 40750 ft 509 kts 81°
2026-05-08 09:05 23.65373 58.63400 40751 ft 509 kts 81°
2026-05-08 09:05 23.66627 58.70956 40752 ft 509 kts 81°
2026-05-08 09:06 23.67884 58.78557 40753 ft 509 kts 81°
2026-05-08 09:06 23.69141 58.86179 40750 ft 509 kts 81°
2026-05-08 09:07 23.70396 58.93785 40745 ft 509 kts 81°
2026-05-08 09:07 23.71648 59.01400 40745 ft 509 kts 81°
2026-05-08 09:08 23.72888 59.08971 40748 ft 510 kts 81°
2026-05-08 09:08 23.74132 59.16589 40754 ft 510 kts 81°
2026-05-08 09:09 23.75374 59.24216 40758 ft 510 kts 81°
2026-05-08 09:09 23.76605 59.31805 40759 ft 509 kts 81°
2026-05-08 09:10 23.77630 59.38141 40761 ft 509 kts 81°
2026-05-08 09:10 23.78862 59.45777 40759 ft 510 kts 80°
2026-05-08 09:11 23.80091 59.53422 40760 ft 510 kts 80°
2026-05-08 09:11 23.81312 59.61067 40758 ft 510 kts 80°
2026-05-08 09:12 23.82520 59.68666 40758 ft 510 kts 80°
2026-05-08 09:12 23.83733 59.76312 40766 ft 510 kts 81°
2026-05-08 09:13 23.84947 59.83968 40766 ft 510 kts 80°
2026-05-08 09:13 23.86155 59.91615 40769 ft 510 kts 80°
2026-05-08 09:14 23.87351 59.99223 40767 ft 510 kts 81°
2026-05-08 09:14 23.88550 60.06869 40768 ft 510 kts 81°
2026-05-08 09:15 23.89748 60.14529 40772 ft 510 kts 81°
2026-05-08 09:15 23.90940 60.22180 40778 ft 510 kts 81°
2026-05-08 09:16 23.92130 60.29842 40776 ft 511 kts 81°
2026-05-08 09:16 23.93310 60.37462 40776 ft 511 kts 81°
2026-05-08 09:17 23.94493 60.45130 40776 ft 511 kts 81°
2026-05-08 09:17 23.95663 60.52743 40783 ft 511 kts 81°
2026-05-08 09:18 23.96837 60.60402 40776 ft 510 kts 81°
2026-05-08 09:18 23.98008 60.68073 40776 ft 510 kts 81°
2026-05-08 09:19 23.99167 60.75686 40796 ft 510 kts 81°
2026-05-08 09:19 24.00329 60.83352 40814 ft 510 kts 81°
2026-05-08 09:20 24.01489 60.91026 40806 ft 511 kts 80°
2026-05-08 09:20 24.02640 60.98669 40795 ft 512 kts 80°
2026-05-08 09:21 24.03794 61.06355 40795 ft 512 kts 80°
2026-05-08 09:23 24.07795 61.33231 40804 ft 511 kts 80°
2026-05-08 09:23 24.08935 61.40928 40804 ft 511 kts 80°
2026-05-08 09:24 24.10055 61.48580 40804 ft 511 kts 80°
2026-05-08 09:24 24.11178 61.56274 40804 ft 511 kts 80°
2026-05-08 09:25 24.12297 61.63964 40804 ft 511 kts 80°
2026-05-08 09:25 24.13405 61.71598 40813 ft 510 kts 80°
2026-05-08 09:26 24.14517 61.79282 40814 ft 510 kts 80°
2026-05-08 09:26 24.15599 61.86978 40814 ft 510 kts 81°
2026-05-08 09:27 24.16626 61.94639 40813 ft 510 kts 81°
2026-05-08 09:27 24.17656 62.02337 40813 ft 510 kts 81°
2026-05-08 09:28 24.18685 62.09992 40814 ft 510 kts 81°
2026-05-08 09:28 24.19719 62.17685 40814 ft 510 kts 81°
2026-05-08 09:29 24.20751 62.25394 40813 ft 510 kts 81°